www.pogodaiklimat.ru

Погода и климат >> Архив погоды >> Парагвай >> Вильяррика


ПОГОДА в Вильяррике

  • Прогноз погоды в Вильяррике
  • Монитор погоды в Вильяррике

АРХИВ ПОГОДЫ в Вильяррике

Время (UTC), дата Ветер
(напр.,м/с)
 
Видим.   Явления Облачность Т
(С)
Тd
(С)
f
(%)
Тe
(С)
Тes
(С)
Комфортность P
(гПа)
Po
(гПа)
Тmin
(С)
Tmax
(С)
R
(мм)
R24
(мм)
S
(см)
06 13.02 Ю 2 20 км ясно +19.6 +18.4 93 +23 +23 комфорт 1016.5 997.4
09 13.02 Ю 3 20 км ясно +17.0 +15.4 90 +17 +17 1014.7 995.4
12 13.02 Ю 3 20 км 3/0
[Ci]
+19.0 +15.8 82 +21 +27 комфорт 1015.9 996.7 +16.6
15 13.02 Ю 3 20 км ясно +25.4 +20.0 72 +31 +50 очень
душно
1014.2 995.4
18 13.02 ЮВ 2 20 км 3/3 1200 м
[Cu hum]
+30.4 +20.8 57 +38 +48 очень
душно
1012.4 993.8
21 13.02 Ю 2 20 км 1/1 1200 м
[Cu hum]
+31.8 +21.8 55 +40 +42 очень
душно
1010.1 991.7
00 14.02 Ю 2 20 км ясно +27.0 +21.0 70 +34 +34 очень
душно
1011.2 992.5 +32.0
09 14.02 штиль 0 20 км 9/9 600 м
[Sc]
+22.6 +21.5 94 +30 +30 очень
душно
1010.1 991.8
12 14.02 СВ 3 20 км 5/0 2000 м
[Ac und]
+26.6 +22.6 79 +35 +40 очень
душно
1011.4 992.8 +19.0
15 14.02 С 3 20 км 9/9 600 м
[Sc]
+29.0 +21.8 65 +37 +39 очень
душно
1011.2 992.7
18 14.02 Ю 2 10 км гроза, ливневой дождь 10/5 90 м
[Frnb As op]
+24.0 +22.5 91 +31 +33 очень
душно
1010.8 991.9 21
21 14.02 ЮВ 1 20 км {дождь} 9/0 2000 м
[Ac As]
+25.6 +23.4 88 +35 +35 очень
душно
1009.5 990.7 4
00 15.02 Ю 2 20 км 10/10 120 м
[St]
+24.4 +23.6 95 +33 +33 очень
душно
1010.1 991.2 +30.4
03 15.02 Ю 2 10 км слаб. дождь 10/5 90 м
[Frnb As op]
+23.6 +22.7 95 +31 +31 очень
душно
1010.7 991.8 15
09 15.02 штиль 0 20 км 9/9 600 м
[Sc]
+22.6 +21.7 95 +30 +30 очень
душно
1008.2 989.4
12 15.02 Ю 2 20 км 3/0
[Ci]
+24.0 +21.1 84 +30 +38 очень
душно
1010.0 991.2 +22.5 43
15 15.02 Ю 2 20 км 6/6 600 м
[Sc]
+27.0 +20.7 68 +34 +42 очень
душно
1010.4 991.7
18 15.02 СВ 2 20 км 4/4 1200 м
[Cu med, cong]
+29.0 +21.6 64 +37 +46 очень
душно
1009.2 990.6
21 15.02 Ю 2 20 км 3/3 1200 м
[Cu hum]
+28.0 +20.4 63 +34 +36 очень
душно
1007.7 989.1
00 16.02 штиль 0 20 км ясно +25.4 +21.6 80 +33 +33 очень
душно
1009.5 990.8 +29.6
03 16.02 штиль 0 20 км ясно +24.4 +20.8 80 +30 +30 очень
душно
1015.8 990.8
06 16.02 Ю 2 20 км 3/0 2000 м
[Ac lent]
+22.2 +19.9 87 +28 +28 душно 1009.5 990.6
12 16.02 Ю 2 10 км дымка 10/10 90 м
[St]
+20.4 +19.5 95 +25 +25 комфорт 1010.4 991.6 +20.0
15 16.02 Ю 2 20 км 10/10 90 м
[St]
+22.2 +18.8 81 +28 +28 душно 1010.5 991.6
18 16.02 Ю 2 20 км {ливн. осадки} 6/6 600 м
[Sc]
+25.0 +22.0 83 +32 +39 очень
душно
1009.8 991.0 3
21 16.02 Ю 3 20 км 6/0 2000 м
[Ac As]
+26.2 +21.4 75 +33 +34 очень
душно
1008.8 989.0
00 17.02 Ю 2 20 км {морось} 4/0 2000 м
[Ac trans]
+23.0 +21.5 91 +31 +31 очень
душно
1008.9 990.0 +28.0 0.9
03 17.02 Ю 2 20 км ясно +22.2 +20.6 91 +29 +29 очень
душно
1009.9 991.0
09 17.02 штиль 0 20 км ясно +21.0 +19.6 92 +26 +26 душно 1010.7 991.6
12 17.02 ЮВ 2 20 км ясно +24.2 +20.8 81 +30 +38 очень
душно
1010.6 991.7 +20.4 4
15 17.02 СВ 2 20 км 4/4 1200 м
[Cu hum]
+28.0 +20.6 64 +35 +47 очень
душно
1010.4 991.8
18 17.02 СВ 2 20 км 3/3 1200 м
[Cu hum]
+30.4 +19.1 51 +36 +46 очень
душно
1008.3 989.8
21 17.02 Ю 2 20 км 3/3 1200 м
[Cu hum]
+30.8 +20.4 54 +38 +39 очень
душно
1006.6 988.3
00 18.02 штиль 0 20 км {ливн. осадки} 9/9 600 м
[Sc]
+23.0 +20.1 84 +30 +30 очень
душно
1009.2 990.3 +31.4 2
03 18.02 штиль 0 20 км ясно +22.0 +20.4 91 +28 +28 душно 1009.8 990.8
09 18.02 штиль 0 20 км ясно +19.6 +18.9 96 +22 +22 комфорт 1008.9 989.0
12 18.02 СВ 2 20 км ясно +25.0 +21.8 82 +32 +40 очень
душно
1009.3 990.6 +19.5 2
15 18.02 СВ 2 20 км 3/3 1200 м
[Cu hum]
+28.6 +21.9 67 +37 +51 опасность
солнечного
удара
1008.9 990.4
18 18.02 С 2 20 км 4/4 1200 м
[Cu hum]
+31.4 +21.8 57 +40 +49 очень
душно
1006.9 988.6
21 18.02 С 1 20 км 3/3 1200 м
[Cu hum]
+32.0 +20.1 49 +38 +39 очень
душно
1004.8 986.5
00 19.02 СВ 1 20 км {ливн. осадки} 6/6 600 м
[Sc]
+23.4 +21.4 89 +32 +32 очень
душно
1008.6 989.7 +32.4 3
03 19.02 штиль 0 20 км ясно +24.0 +20.9 83 +30 +30 очень
душно
1009.6 990.7
06 19.02 штиль 0 20 км ясно +22.4 +20.4 88 +29 +29 очень
душно
1007.5 988.7
09 19.02 штиль 0 20 км ясно +21.2 +20.7 97 +26 +26 душно 1007.7 988.8
12 19.02 штиль 0 20 км ясно +24.4 +22.1 87 +32 +41 очень
душно
1008.0 990.0 +21.2 3
15 19.02 штиль 0 20 км 4/4 1200 м
[Cu hum]
+30.6 +22.4 62 +40 +56 опасность
солнечного
удара
1008.7 990.4
18 19.02 Ю 1 20 км 3/3 1200 м
[Cu med, cong]
+32.8 +19.7 46 +39 +51 опасность
солнечного
удара
1007.0 988.7
21 19.02 Ю 2 20 км 1/1 1200 м
[Cu hum]
+32.0 +23.1 59 +42 +43 опасность
перегрева
1004.6 986.3
00 20.02 ЮВ 2 20 км ясно +27.0 +22.5 76 +35 +35 очень
душно
1008.0 989.3 +33.0
03 20.02 ЮВ 1 20 км ясно +25.8 +21.6 78 +33 +33 очень
душно
1008.7 989.9

 

Местоположение метеостанции Вильяррика (Парагвай): широта -25.75 долгота -56.43 высота над уровнем моря 161 м.

В архиве по умолчанию представлена погода в Вильяррике за последнюю неделю. Архивные данные за месяц целиком и за предыдущие месяцы, начиная с января 2011 года, Вы можете получить, выбрав интересующий диапазон дат из раскрывающегося списка и нажав кнопку "Ввод!".


*Определитесь, кто Вы:
робот инопланетянин человек

Внимание! Время в таблицах - всемирное. Для получения местного времени необходимо прибавить поправку, которая равна -4 ч.

Смотрите также архив погоды в соседних городах и на ближайших метеорологических станциях:

Погода в Коронель-Овьедо (Парагвай) (34 км)
Погода в Каасапе (Парагвай) (48 км)
Погода в Парагуари (Парагвай) (71 км)
Погода в Куйкуйо (Парагвай) (76 км)
Погода в Асунсьоне (Парагвай) (122 км)
Погода в Сан Эстанислао (Парагвай) (122 км)
Погода в Сан Хуан Батистута (Парагвай) (124 км)
Погода в Аэропорту Гуарани (Парагвай) (162 км)
Погода в Капитан Меса (Парагвай) (180 км)
Погода в Энкарнасьоне (Парагвай) (183 км)

Пояснения к столбцам:

Ветер - указаны скорость ветра в м/с - средняя за 10 мин, порывы в срок и между сроками (в фигурных скобках) и направление, откуда дует ветер: С - северный, СВ - северо-восточный, В - восточный, ЮВ - юго-восточный, Ю - южный, ЮЗ - юго-западный, З - западный, СЗ - северо-западный.
Видимость - горизонтальная дальность видимости в метрах или километрах. При видимости от 1 до 10 км при отсутствии осадков обычно наблюдается дымка, при ухудшении видимости до 1 км и менее - туман. В сухую погоду видимость может ухудшаться дымом, пылью или мглою.
Явления - указаны атмосферные явления, наблюдавшиеся в срок или в последний час перед сроком; фигурными скобками обозначены явления, наблюдавшиеся между сроками (за 1-3 часа до срока); квадратными скобками обозначены град или гололедные отложения с указанием их диаметра в мм.
Облачность - указаны через наклонную черту общая и нижняя облачность в баллах и высота нижней границы облаков в метрах; квадратными скобками обозначены формы облаков: Ci - перистые, Cs - перисто-слоистые, Cc - перисто-кучевые, Ac - высококучевые, As - высокослоистые, Sc - слоисто-кучевые, Ns - слоисто-дождевые, Cu - кучевые, Cb - кучево-дождевые. Подробнее классификацию облаков см. в Атласе облаков (PDF).
T - Температура воздуха - температура, измеренная на высоте 2 м над землей.
Td - Температура точки росы - температура, при понижении до которой содержащийся в воздухе водяной пар достигнет насыщения.
f - Относительная влажность воздуха - влажноcть воздуха, измеренная на высоте 2 м над землей.
Te - Эффективная температура - температура, которую ощущает одетый по сезону человек в тени. Характеристика душности погоды. При расчете учитывается влияние влажности воздуха и скорости ветра на теплоощущения человека.
Tes - Эффективная температура на солнце - температура, которую ощущает человек, с поправкой на солнечный нагрев. Характеристика знойности погоды. Зависит от высоты солнца над горизонтом, облачности и скорости ветра. Ночью, в пасмурную погоду, а также при ветре 12 м/с и более поправка равна нулю.
P - Атмосферное давление - приведенное к уровню моря атмосферное давление.
Po - Атмосферное давление - измеренное на уровне метеостанции атмосферное давление.
Tmin - Минимальная температура - минимум температуры воздуха на высоте 2 м над землей.
Tmax - Максимальная температура - максимум температуры воздуха на высоте 2 м над землей.
R - Количество осадков - Количество выпавших осадков за период времени, мм. При наведении курсора мыши на число - период времени, за который выпало указанное количество осадков.
R24 - Количество осадков - Количество выпавших осадков за 24 часа, мм.
S - Снежный покров - Высота снежного покрова, см. При наведении курсора мыши на число - состояние снежного покрова и степень покрытия местности в баллах.